Location: Newark
(47.4417°N, 1.1394°W)
Time: 20:59:49
(UTC+00:00)

Envisat - Visible Passes

Search period start: 17 November 2019 00:00
Search period end: 27 November 2019 00:00
Orbit: 764 x 766 km, 98.1° (Epoch: 17 November)

Date Brightness Start Highest point End Pass type
(mag) Time Alt. Az. Time Alt. Az. Time Alt. Az.
17 Nov 6.1 05:37:02 10° NE 05:39:45 14° E 05:42:26 10° ESE visible
17 Nov 3.9 16:54:10 10° ESE 16:58:22 27° ENE 17:02:36 10° N visible
17 Nov 4.1 18:32:19 10° S 18:37:11 46° W 18:42:04 10° NNW visible
18 Nov 2.9 17:55:15 10° SSE 18:00:20 87° ENE 18:05:27 10° NNW visible
18 Nov 6.0 19:37:37 10° WSW 19:40:03 13° W 19:42:28 10° WNW visible
19 Nov 5.6 06:01:28 10° NE 06:05:34 24° E 06:09:37 10° SE visible
19 Nov 3.3 17:18:54 10° SE 17:23:40 43° ENE 17:28:28 10° N visible
19 Nov 5.0 18:58:33 10° SSW 19:02:51 28° W 19:07:11 10° NW visible
20 Nov 6.3 05:26:47 10° ENE 05:28:19 11° E 05:29:50 10° ESE visible
20 Nov 3.6 18:20:52 10° S 18:25:51 57° W 18:30:53 10° NNW visible
21 Nov 4.6 06:26:29 10° NNE 06:31:15 39° E 06:36:00 10° SSE visible
21 Nov 2.9 17:44:01 10° SSE 17:49:04 71° ENE 17:54:09 10° N visible
21 Nov 5.8 19:25:25 10° SW 19:28:37 17° W 19:31:51 10° NW visible
22 Nov 5.9 05:50:32 10° NE 05:54:10 19° E 05:57:46 10° SE visible
22 Nov 3.6 17:07:53 10° SE 17:12:28 35° ENE 17:17:04 10° N visible
22 Nov 4.6 18:46:54 10° SSW 18:51:29 34° W 18:56:07 10° NNW visible
23 Nov 3.3 18:09:29 10° S 18:14:33 71° WSW 18:19:39 10° NNW visible
24 Nov 5.0 06:15:22 10° NNE 06:19:54 32° E 06:24:25 10° SSE visible
24 Nov 3.0 17:32:52 10° SSE 17:37:49 57° ENE 17:42:49 10° N visible
24 Nov 5.5 19:13:27 10° SW 19:17:13 21° W 19:21:00 10° NW visible
25 Nov 6.0 05:39:44 10° NE 05:42:45 16° E 05:45:45 10° SE visible
25 Nov 3.8 16:56:58 10° ESE 17:01:16 29° ENE 17:05:38 10° N visible
25 Nov 4.2 18:35:21 10° SSW 18:40:09 42° W 18:44:59 10° NNW visible
26 Nov 4.0 06:40:33 10° NNE 06:45:33 53° E 06:50:30 10° S visible
26 Nov 3.0 17:58:11 10° SSE 18:03:16 87° WSW 18:08:24 10° NNW visible
26 Nov 6.1 19:41:04 10° WSW 19:43:03 12° W 19:45:03 10° WNW visible
